Lander, WY

4:28 PM MDT on March 25, 2017 (GMT -0600)
Hunt

Weather History for KLND - January, 2013

Change the Weather History Date:

Sunday, January 27, 2013

  Actual Average Record
Temperature  
Mean Temperature 36 °F 22 °F  
Max Temperature 49 °F 33 °F 56 °F (2003)
Min Temperature 23 °F 11 °F -25 °F (1902)
Degree Days  
Heating Degree Days 29 43  
Month to date heating degree days 1266 1170  
Since 1 July heating degree days 4041 4416  
Cooling Degree Days 0 0  
Month to date cooling degree days 0 0  
Year to date cooling degree days 0 0  
Moisture  
Dew Point 23 °F    
Average Humidity 63    
Maximum Humidity 88    
Minimum Humidity 37    
Precipitation  
Precipitation T in 0.01 in 0.55 in (1916)
Month to date precipitation 0.34 0.36  
Year to date precipitation 0.34 0.36  
Snow  
Snow 0.00 in 0.20 in - ()
Month to date snowfall 5.9 6.6  
Since 1 July snowfall 21.6 42.3  
Snow Depth 1.00 in    
Sea Level Pressure  
Sea Level Pressure 29.68 in    
Wind  
Wind Speed 7 mph (NNW)    
Max Wind Speed 32 mph    
Max Gust Speed 43 mph    
Visibility 10 miles    
Events      
T = Trace of Precipitation, MM = Missing Value Source: NWS Daily Summary

Daily Weather History Graph

Daily Weather History Graph

Search for Another Location

Airport or City:

Trip Planner

Search our weather history database for the weather conditions in past years. The results will help you decide how hot, cold, wet, or windy it might be!

Date:

Astronomy

Jan. 27, 2013 Rise Set
Actual Time 7:34 AM MST 5:21 PM MST
Civil Twilight 7:03 AM MST 5:52 PM MST
Nautical Twilight 6:29 AM MST 6:26 PM MST
Astronomical Twilight 5:56 AM MST 6:59 PM MST
Moon 6:21 PM MST (1/27) 7:26 AM MST (1/27)
Length of Visible Light 10h 48m
Length of Day
9h 47m
Full, 100% of the Moon is Illuminated
Jan 27
Full
Feb 3
Last Quarter
Feb 10
New
Feb 17
First Quarter
Feb 25
Full

Hourly Weather History & Observations

Time (MST) Temp. Windchill Dew Point Humidity Pressure Visibility Wind Dir Wind Speed Gust Speed Precip Events Conditions
12:53 AM 30.0 °F 26.5 °F 23.0 °F 75% 29.75 in 10.0 mi NW 3.5 mph - N/A   Clear
1:53 AM 30.9 °F - 23.0 °F 72% 29.72 in 10.0 mi Calm Calm - N/A   Clear
2:53 AM 28.0 °F - 21.9 °F 78% 29.73 in 10.0 mi Calm Calm - N/A   Clear
3:53 AM 25.0 °F 17.1 °F 21.0 °F 85% 29.74 in 9.0 mi NNW 6.9 mph - N/A   Clear
4:53 AM 28.9 °F 21.9 °F 21.0 °F 72% 29.72 in 10.0 mi West 6.9 mph - N/A   Clear
5:53 AM 26.1 °F 21.9 °F 21.0 °F 81% 29.74 in 10.0 mi SSE 3.5 mph - N/A   Clear
6:53 AM 25.0 °F 20.7 °F 19.9 °F 81% 29.76 in 10.0 mi NW 3.5 mph - N/A   Clear
7:53 AM 25.0 °F 20.7 °F 19.9 °F 81% 29.77 in 10.0 mi WNW 3.5 mph - N/A   Clear
8:53 AM 28.0 °F - 21.0 °F 75% 29.74 in 10.0 mi Calm Calm - N/A   Clear
9:53 AM 30.9 °F 27.5 °F 21.9 °F 69% 29.74 in 10.0 mi NNE 3.5 mph - N/A   Clear
10:53 AM 34.0 °F 31.0 °F 23.0 °F 64% 29.72 in 10.0 mi NW 3.5 mph - N/A   Clear
11:53 AM 35.1 °F 29.3 °F 25.0 °F 67% 29.68 in 10.0 mi North 6.9 mph - N/A   Clear
12:53 PM 39.0 °F 36.8 °F 26.1 °F 60% 29.65 in 10.0 mi NNE 3.5 mph - N/A   Clear
1:53 PM 41.0 °F 38.0 °F 27.0 °F 57% 29.60 in 10.0 mi NNE 4.6 mph - N/A   Clear
2:53 PM 46.9 °F - 26.1 °F 44% 29.53 in 10.0 mi SSE 6.9 mph - N/A   Clear
3:53 PM 46.9 °F - 25.0 °F 42% 29.55 in 10.0 mi SSE 11.5 mph - N/A   Clear
4:53 PM 37.9 °F 32.1 °F 28.0 °F 68% 29.57 in 10.0 mi NNW 8.1 mph - 0.00 in   Overcast
5:53 PM 43.0 °F 35.4 °F 21.0 °F 42% 29.56 in 10.0 mi SW 16.1 mph 26.5 mph N/A   Partly Cloudy
6:53 PM 44.1 °F 34.2 °F 19.9 °F 38% 29.56 in 10.0 mi SW 28.8 mph 42.6 mph N/A   Clear
7:53 PM 42.1 °F 37.1 °F 19.0 °F 40% 29.60 in 10.0 mi SE 8.1 mph 19.6 mph N/A   Clear
8:17 PM 30.2 °F 18.9 °F 26.6 °F 86% 29.60 in 10.0 mi North 16.1 mph - N/A   Clear
8:53 PM 28.9 °F 20.4 °F 25.0 °F 85% 29.70 in 10.0 mi North 9.2 mph - N/A   Clear
9:42 PM 28.4 °F 20.4 °F 21.2 °F 74% 29.67 in 10.0 mi NNW 8.1 mph - N/A   Mostly Cloudy
9:53 PM 28.0 °F 20.8 °F 21.9 °F 78% 29.73 in 10.0 mi WNW 6.9 mph - N/A   Mostly Cloudy
10:53 PM 28.0 °F 21.7 °F 21.9 °F 78% 29.73 in 10.0 mi SE 5.8 mph - N/A   Overcast
11:49 PM 26.6 °F 19.1 °F 21.2 °F 80% 29.69 in 10.0 mi SE 6.9 mph - N/A   Overcast
11:53 PM 27.0 °F 20.5 °F 19.9 °F 75% 29.74 in 10.0 mi ESE 5.8 mph - N/A   Overcast